COSMOS 2251 DEB, 35022

Orbit data source: Space-Track

COSMOS 2251 DEB, 35022 is space debris in LEO originally from a launch on Wed, 16 Jun 1993 UTC launched from the Plesetsk Missile And Space Complex (PKMTR). The debris from Iridium 33, an American commercial communications satellite, has been tracked extensively since its accidental collision with the defunct Russian satellite Cosmos 2251 in 2009. This event, occurring at high speed in low Earth orbit (LEO), generated thousands of pieces of space debris, significantly increasing the risk of further collisions. The Iridium 33 debris cloud has impacted space traffic management and orbital debris mitigation strategies, making it a subject of ongoing study in space situational awareness.

Loading next visibility...
Identifier
35022, 1993-036AGK
Orbit
LEO
Country
Flag of CISCIS
Related business
Manufacturer
Unknown
Mission
Spacecraft
Bus & Motor
Unknown
Mass
Unknown
Launch date (UTC)
1993-06-16 (32 years ago)
Launch vehicle
Unknown
Launch site
Plesetsk Missile And Space Complex (PKMTR)
Object type
Payload
Rocket body
Debris
Shape & HBR
Unknown shape, 0.1 m
Radar Cross Section
Small (<0.1 m²)

Expand to show TLE details & history
Last TLE update: 1 day ago

TLE from 1 day ago
0 COSMOS 2251 DEB
1 35022U 93036AGK 25292.01453690  .00004587  00000-0  93646-3 0  9996
2 35022  74.0251  66.5373 0048536 277.8701  81.6957 14.60457220583442
Epoch: 2025-10-19T00:20Z
TLE epoch observation values (Epoch: 2025-10-19T00:20:55.988Z)
Latitude
Longitude
33.56674°
Altitude
689.545 km
Speed
7.514 km/s
True Right ascension
04h 26m 08s
True Declination
0° 00' 00"
Sunlit
Object was in full shadow at epoch
Visualization orbit readout
Latitude
Unknown
Longitude
Unknown
Altitude
Unknown
Speed
Unknown
Apparent Right ascension
Unknown
Apparent Declination
Unknown
Sunlit
N/A
Visualization observer readout
Local Sidereal Time
01:01:12
Azimuth
Unknown
Elevation
Unknown
Doppler factor
Unknown
Orbital elements
Apogee altitude
723.598 km
Perigee altitude
654.993 km
Semi-major axis
7,067.433 km
Eccentricity
0.00485
Inclination
74.0251°
RAAN
66.5373°
Arg. of periapsis
277.8701°
True anomaly
82.24652°
Mean anomaly
81.6957°
Eccentric anomaly
81.97106°
Mean motion
3.65301 °/min
Orbital period
98.55 mins
BSTAR
0.00093646
Loading maneuver chart data...
Computing Atmospheric mass density...

Documentation

Showing up to 5 results
|